Tracking 22779 objects as of 15-Apr-2021
HD Live streaming from Space Station
objects crossing your sky now

METEOR 2-17 DEB

Track METEOR 2-17 DEB now!
10-day predictions


NORAD ID: 31401
Int'l Code: 1988-005W
Perigee: 894.6 km
Apogee: 915.1 km
Inclination: 82.5 °
Period: 102.9 minutes
Semi major axis: 7275 km
RCS: 0.0104 m2 (small)
Launch date: January 30, 1988
Source: Commonwealth of Independent States (former USSR) (CIS)
Launch site: PLESETSK MISSILE AND SPACE COMPLEX (PKMTR)

Note: This is SATELLITE DEBRIS
aabbcc
Your satellite tracking list
Your tracking list is empty




NASA's NSSDC Master Catalog

Two Line Element Set (TLE):
1 31401U 88005W   21103.36583839  .00001031  00000-0  70458-3 0  9994
2 31401  82.5350 340.9458 0014059 205.2593 154.7889 13.98863891737412
Source of the keplerian elements: AFSPC